Theta_e
330 322 314 311 315 312 308 303 294 291 297 291 291 293 293 299 302 299 298 299 307 318 325 330 329 328 320 320 325 328 329 321 320 304 305 331 345 346 349 351 352 352 352 354 354 354 353 355 355 354 354 353 353 353 352 351 350 350 350 349 349 349 349 351 351 352 352 352 352 352 353 353 353 353 352 352 352 352 351 352 351 351 351 351 351 351 352 352 351 351 351 352 351 351 350 349 349
325 318 308 313 315 309 305 299 291 293 290 290 293 294 296 298 297 298 297 299 309 323 328 329 329 330 331 330 331 331 329 331 333 331 337 343 346 347 350 351 351 350 352 353 353 353 353 353 354 354 352 354 353 352 351 350 351 350 349 349 349 349 350 350 351 352 352 352 353 353 352 352 352 352 352 352 352 352 351 352 352 351 351 351 352 351 353 352 351 351 351 352 350 350 349 349 349
320 311 306 308 307 306 301 301 295 288 290 285 291 294 297 296 297 297 299 312 323 327 329 328 328 327 328 328 325 324 320 336 336 337 336 344 339 342 349 351 352 352 352 353 353 353 352 352 354 353 353 352 353 351 351 351 350 350 349 349 349 349 349 350 351 352 352 352 352 353 353 352 352 353 352 352 352 352 351 351 352 352 351 351 351 351 351 351 350 350 351 350 350 350 349 349 348
312 314 309 303 303 299 298 293 289 289 288 287 288 294 294 296 297 307 316 323 326 327 324 323 323 328 328 324 327 333 330 331 337 336 334 338 340 345 349 351 353 352 352 352 352 352 352 353 353 353 352 352 352 351 351 350 350 349 349 349 349 349 350 351 351 352 352 352 353 353 353 353 353 353 352 352 351 351 351 351 351 351 351 351 350 350 349 350 350 349 348 348 348 347 347 346 345
312 313 310 302 299 300 297 294 289 288 289 288 288 292 296 297 298 315 319 321 325 322 323 325 324 330 331 328 329 325 328 336 337 339 338 341 346 347 349 351 351 351 351 352 352 352 352 354 353 352 352 352 352 351 351 350 350 349 349 349 349 349 350 351 351 352 352 352 352 352 353 353 352 352 351 351 351 351 351 351 351 351 350 350 349 348 348 348 347 345 345 345 344 344 344 343 342
304 303 308 304 301 301 296 293 291 290 295 292 290 291 292 295 306 315 317 321 322 322 323 323 324 324 328 331 333 328 335 328 336 337 339 340 346 348 349 350 349 349 350 351 351 351 351 353 352 352 352 351 351 351 350 349 348 349 349 348 348 349 350 350 350 351 352 352 352 352 352 353 352 351 351 351 350 350 350 350 350 350 350 350 349 349 348 346 345 344 344 343 342 342 342 342 341
305 302 300 301 300 297 289 286 287 289 295 295 294 295 298 298 300 317 317 319 323 326 327 328 332 331 326 332 336 338 341 340 336 337 341 343 346 347 348 349 348 348 349 350 351 350 351 352 352 352 352 351 351 350 350 349 348 348 348 348 348 348 349 349 350 351 351 352 352 352 353 352 352 351 351 350 350 350 350 349 349 349 349 348 349 349 349 347 345 344 344 343 342 341 341 341 341
311 302 300 294 291 293 290 287 289 289 292 296 297 299 301 301 305 313 316 316 316 319 325 328 331 328 326 337 326 337 341 342 340 342 343 344 345 346 347 347 346 347 349 350 350 350 353 352 352 351 351 351 350 349 349 348 348 348 347 347 347 347 348 349 350 350 351 352 353 353 353 352 351 350 350 350 350 349 349 349 349 348 348 348 348 347 347 346 344 344 343 342 342 342 342 341 341
304 302 301 295 292 291 287 287 289 290 293 295 298 300 309 302 300 303 305 314 320 326 327 329 328 325 328 330 329 335 337 341 342 344 343 343 343 345 346 346 345 346 348 349 350 349 349 351 351 351 351 350 349 349 348 348 348 347 347 347 347 349 349 350 350 351 352 352 353 352 352 351 351 350 350 349 349 349 348 348 348 348 347 347 346 344 344 343 343 343 343 343 342 342 342 342 342
302 302 295 292 289 290 286 287 289 290 291 293 296 298 299 300 298 300 302 313 320 324 327 332 331 327 331 326 329 333 334 340 341 340 341 343 344 345 345 346 346 346 347 348 348 348 348 352 351 350 349 349 348 348 348 348 347 347 347 348 349 349 350 350 350 350 351 352 352 352 351 351 350 350 349 349 349 348 348 348 348 348 347 347 345 344 344 344 344 343 342 342 343 342 342 342 342
298 296 296 293 288 286 288 285 288 293 295 297 298 301 302 302 300 298 303 317 324 325 329 333 328 328 329 329 331 340 340 340 338 336 341 343 344 343 344 346 347 347 346 347 348 347 348 349 351 350 349 349 348 348 348 348 348 348 348 348 348 349 349 350 350 350 349 351 351 350 350 350 350 349 349 348 348 348 348 347 347 347 346 345 345 345 345 344 343 342 342 342 342 342 342 342 342
297 293 293 285 285 285 284 286 289 291 294 294 295 299 299 300 301 304 318 320 324 326 326 328 326 332 327 327 329 337 338 337 337 340 342 344 343 344 345 346 346 347 347 347 347 346 347 348 347 349 348 348 348 348 348 348 348 348 348 348 348 348 348 349 349 349 349 350 350 350 350 349 349 349 349 348 347 347 347 347 346 347 346 346 346 346 345 344 343 342 341 342 342 342 342 341 341
295 291 286 287 283 287 287 288 289 294 293 293 295 299 300 298 300 314 319 323 325 322 322 329 334 333 324 327 335 338 336 338 341 343 343 343 343 344 345 345 346 346 346 346 344 344 344 344 346 346 347 348 348 348 348 348 348 348 348 348 347 347 348 348 348 348 348 349 349 349 349 349 349 348 348 348 348 347 346 346 346 345 345 346 346 345 344 344 343 343 342 342 342 342 342 342 341
298 293 290 288 286 285 289 288 287 289 289 295 296 299 300 299 298 319 324 322 322 320 328 335 333 334 328 332 332 333 335 340 341 341 342 342 343 343 344 344 344 345 345 344 343 343 342 343 344 344 344 343 343 347 347 347 347 347 347 347 347 347 347 347 347 348 348 349 349 349 349 349 348 348 348 348 348 347 346 346 345 345 345 346 346 346 344 343 343 342 342 342 342 341 342 341 341
301 294 291 289 286 288 286 289 286 287 290 295 296 298 306 318 309 323 324 320 322 331 334 338 336 331 323 327 327 332 336 338 339 341 340 341 342 342 342 343 343 343 343 343 342 341 341 341 342 342 343 341 340 340 339 345 347 347 347 346 346 346 347 347 348 348 349 349 349 349 349 348 348 348 347 347 347 347 345 345 345 345 345 345 346 345 344 344 343 343 342 342 341 341 341 342 340
299 293 290 290 284 286 288 288 289 290 291 294 299 298 320 324 324 323 323 327 327 334 335 328 335 325 332 331 333 337 338 338 340 340 339 339 339 340 340 341 340 341 340 341 341 341 341 341 341 341 341 340 339 339 339 339 345 346 346 346 346 346 346 347 348 349 349 348 348 348 348 346 346 343 346 345 346 346 346 344 345 344 345 345 345 346 345 344 343 343 343 341 341 340 340 340 341
296 296 288 286 285 287 286 289 289 288 290 294 301 307 318 321 328 330 332 332 327 327 331 332 331 336 333 335 338 338 338 340 340 338 337 336 336 336 337 338 338 338 339 339 341 341 341 342 341 340 340 340 340 339 338 339 343 345 345 346 346 346 346 347 347 348 348 348 347 347 344 339 336 336 336 338 345 342 346 345 345 344 344 345 345 345 345 344 344 343 343 341 341 341 341 341 340
298 291 286 285 284 287 289 292 291 294 294 295 298 302 321 321 326 329 334 331 330 331 330 333 336 335 337 337 338 338 338 337 336 335 334 333 334 332 332 334 335 334 337 338 340 340 340 340 341 339 338 339 339 341 340 341 343 345 339 340 341 343 347 348 345 343 347 340 347 341 338 341 333 335 336 345 337 341 342 345 345 344 344 344 343 345 345 345 344 344 343 342 342 341 341 331 330
295 289 287 287 286 291 293 293 295 295 295 296 297 299 306 322 326 326 326 326 327 327 329 332 330 333 335 336 336 336 336 334 335 335 333 332 331 330 330 331 332 333 334 337 338 338 338 338 338 339 338 338 339 338 341 342 341 339 338 338 341 346 346 347 341 341 338 338 340 338 336 331 332 332 335 341 341 344 341 345 345 345 345 345 344 344 345 345 345 344 344 343 342 342 332 328 327
295 293 287 289 291 292 294 296 297 297 297 297 298 299 310 323 325 329 325 325 327 325 325 329 329 328 331 333 335 335 334 333 333 334 333 332 331 330 330 330 331 332 335 337 337 337 336 337 337 338 338 337 338 338 339 339 337 336 336 336 338 338 337 339 338 337 336 338 339 336 333 334 331 329 345 348 346 339 337 345 345 345 345 345 345 341 345 345 346 345 344 343 335 334 332 331 329
293 293 290 290 292 293 297 297 297 297 298 297 297 300 317 319 326 328 326 323 324 327 330 329 328 330 331 333 334 334 332 331 332 333 332 331 331 331 331 332 332 333 336 338 338 336 335 335 336 337 338 337 337 338 339 337 335 335 334 335 336 335 335 334 333 333 333 334 334 333 332 334 330 329 332 335 337 335 333 333 333 334 331 332 342 328 331 335 338 337 334 335 332 334 333 331 328
294 292 293 294 293 294 299 298 297 297 298 298 297 307 305 323 327 327 325 320 321 326 332 334 334 334 333 333 333 333 331 330 330 330 331 331 330 331 333 334 336 337 337 335 336 336 335 337 337 337 338 337 337 336 336 339 339 333 333 334 333 332 332 332 332 333 333 332 332 334 335 331 330 329 329 331 335 332 333 332 330 330 328 329 338 331 330 333 335 336 337 335 333 334 333 331 328
292 291 292 293 295 295 298 299 299 298 297 297 297 300 316 323 321 322 326 324 328 334 335 335 335 336 336 336 333 330 329 329 329 329 330 330 330 331 333 334 334 334 335 336 338 338 338 336 336 337 337 337 336 335 337 336 334 333 332 333 332 330 332 332 332 334 333 333 333 336 333 332 332 329 328 331 334 333 332 332 330 329 328 328 330 331 329 329 332 335 335 335 333 334 335 334 331
294 290 291 295 296 295 298 299 299 296 297 297 299 301 320 319 318 326 327 330 333 335 337 336 337 337 337 333 332 330 329 329 329 330 331 331 331 331 333 334 335 336 336 337 338 339 339 337 337 337 336 335 333 335 336 335 333 333 334 339 334 337 335 331 331 334 335 335 336 335 335 332 333 330 328 330 333 333 333 332 332 333 330 328 328 329 329 327 330 332 334 335 336 336 335 335 333
293 292 294 295 296 297 298 297 296 296 296 297 308 307 305 321 324 328 326 331 333 333 334 334 335 335 334 333 331 331 330 330 330 330 332 333 333 334 334 335 335 336 335 337 338 338 338 338 336 336 335 335 334 335 335 334 334 333 335 332 331 341 331 330 331 335 335 335 336 336 337 331 334 331 328 329 331 331 330 332 332 332 331 330 329 328 327 325 326 330 332 335 336 335 332 333 332
293 295 296 296 296 297 297 296 296 296 301 307 320 319 324 326 328 322 326 330 332 333 333 333 333 332 332 332 332 331 330 329 330 331 332 333 334 333 333 334 335 335 336 337 337 338 338 338 336 335 335 335 334 334 334 335 334 332 331 331 331 338 331 330 333 333 334 335 335 335 336 335 334 333 330 328 329 330 330 329 333 331 331 330 331 329 329 328 327 326 327 329 330 331 332 332 333
293 294 294 295 297 296 297 296 297 297 299 303 319 320 322 323 323 315 319 327 332 331 331 332 331 330 331 331 331 330 330 330 331 333 333 333 333 333 333 335 335 336 338 337 337 337 339 337 336 336 335 338 334 333 332 333 335 332 332 331 331 333 334 333 331 330 334 336 336 335 336 338 336 334 331 329 332 330 329 330 331 330 332 331 331 329 329 329 328 327 328 328 327 327 328 330 331
296 295 294 294 294 295 296 295 296 297 299 300 321 318 316 317 321 317 319 328 331 329 328 329 329 329 330 330 329 330 330 332 333 333 331 332 332 333 334 334 335 337 337 337 338 339 338 336 336 336 335 336 335 334 336 334 334 333 334 333 333 332 335 332 331 332 336 336 336 335 336 336 337 334 331 329 333 332 331 329 329 329 329 329 331 331 330 331 329 328 329 329 329 329 328 328 328
295 294 291 291 291 294 294 295 297 297 298 297 306 309 312 315 315 320 324 330 330 329 328 329 329 329 329 330 330 331 331 332 332 332 332 333 334 335 333 336 336 336 338 339 339 339 338 338 335 335 334 334 333 333 332 332 332 334 334 332 334 338 335 333 331 332 334 335 334 335 335 336 336 336 333 332 334 331 330 329 329 329 330 330 330 331 331 330 331 329 329 329 328 326 326 327 328
295 294 290 291 291 288 294 294 295 297 298 296 299 291 290 300 318 323 329 328 329 328 327 328 328 329 329 330 330 330 331 330 330 331 332 332 333 334 333 335 337 336 337 338 339 339 340 340 339 336 334 333 334 332 332 332 332 333 334 333 337 337 336 336 335 331 333 334 332 330 332 335 336 335 333 331 329 328 330 331 330 330 330 332 333 331 329 328 328 328 329 328 332 328 327 326 325
290 290 291 285 286 285 291 294 295 296 296 296 296 287 290 310 311 316 325 329 328 326 327 327 327 327 328 329 329 329 330 331 330 330 331 331 331 333 333 333 334 336 337 337 338 339 340 340 341 338 337 333 335 332 332 331 334 334 333 333 335 336 336 335 335 335 333 333 331 329 329 331 333 334 333 331 329 328 327 329 329 329 329 333 333 333 332 330 329 329 327 328 327 327 326 328 326
289 288 282 284 285 284 288 291 295 295 296 294 293 288 301 308 313 320 324 326 328 325 326 326 326 326 327 328 329 329 329 329 328 328 330 330 331 331 331 331 333 335 336 336 337 339 339 339 338 334 333 332 330 332 331 332 332 331 331 339 332 332 333 332 332 333 334 334 335 335 333 332 331 331 331 331 331 329 328 329 328 328 329 331 331 331 331 329 328 329 328 326 325 326 326 327 326
284 286 282 286 286 286 290 295 293 295 295 295 295 286 301 307 312 320 319 322 327 325 324 324 325 326 326 327 328 329 328 328 328 328 329 330 332 333 332 332 333 335 335 335 335 336 338 339 338 332 329 329 330 330 330 332 332 329 330 329 331 332 333 332 333 333 334 332 331 332 334 336 336 335 335 335 334 333 332 331 331 330 331 330 329 328 328 328 327 328 325 326 325 326 325 325 326
282 283 284 284 285 285 286 289 292 293 292 294 302 299 303 308 313 320 320 319 323 322 323 324 324 325 326 327 328 328 328 327 325 326 327 330 332 333 334 335 335 335 335 335 335 335 336 336 335 335 333 332 330 330 330 330 332 331 330 328 336 333 332 332 332 331 331 330 329 329 330 333 337 338 338 337 336 336 335 334 332 331 331 331 330 328 329 328 329 329 328 326 326 325 324 324 325
280 284 285 286 286 286 287 288 292 294 302 300 300 297 303 311 316 320 322 322 322 322 323 323 324 325 326 327 328 328 327 325 324 326 328 330 330 332 333 333 334 334 333 334 334 335 336 336 334 336 332 331 330 332 336 335 332 329 327 328 329 330 328 328 329 328 329 328 327 327 330 330 333 335 335 335 334 333 334 334 333 333 333 331 330 331 332 331 330 330 329 329 327 328 327 324 325
285 284 284 283 285 285 286 288 292 299 301 301 300 302 309 313 313 313 315 319 316 320 323 323 324 325 324 323 323 323 323 324 326 328 327 327 327 328 330 333 332 332 331 332 333 334 334 334 333 333 333 333 331 331 331 331 332 329 329 327 326 327 326 328 328 327 327 327 328 329 328 327 328 330 330 332 332 334 333 334 334 333 331 330 331 332 333 333 331 330 329 329 329 328 329 328 325
287 287 287 285 285 286 288 290 301 309 305 305 304 309 311 312 310 310 313 315 316 319 320 322 321 320 319 319 319 319 320 321 324 325 325 325 326 327 327 328 328 328 328 329 329 330 333 334 332 331 332 333 333 333 331 329 327 326 324 326 325 325 328 330 327 326 326 328 329 327 327 327 327 326 330 328 329 332 335 335 334 332 328 330 331 332 332 332 333 332 330 330 329 328 328 328 327
289 287 286 285 286 285 289 290 292 303 305 306 310 310 311 311 312 313 315 314 315 317 319 318 318 318 318 318 318 318 319 321 322 322 323 323 323 324 325 325 327 324 326 326 326 327 328 329 329 329 329 329 330 332 332 331 329 331 329 326 326 324 325 325 326 327 328 329 328 327 327 327 326 326 329 328 329 327 328 328 329 329 330 330 330 330 331 333 332 331 331 330 330 329 328 327 327
288 286 285 285 284 286 288 294 308 311 310 306 310 308 309 311 311 314 314 314 314 316 317 317 317 316 316 316 316 317 317 317 319 319 321 322 322 323 323 323 323 324 324 324 325 325 325 325 326 326 326 327 328 330 330 331 331 332 329 326 326 326 326 327 328 327 329 328 326 325 326 325 326 326 327 329 328 328 327 327 328 327 327 328 328 328 328 328 329 329 330 329 329 329 329 329 326
286 285 285 283 284 286 283 296 304 309 308 307 309 307 307 310 312 311 313 314 313 314 315 315 317 316 315 316 316 315 316 316 316 317 318 320 321 321 321 321 321 322 322 322 323 323 324 324 324 324 325 326 326 328 330 331 332 329 329 329 327 326 327 331 328 327 327 326 327 326 325 325 326 325 326 326 327 327 327 328 329 328 329 330 329 328 328 328 328 329 329 329 328 325 327 328 329
287 287 285 285 288 287 287 297 307 310 311 312 309 306 305 307 305 308 312 314 313 313 313 313 314 314 315 315 315 316 315 315 315 316 317 318 318 319 319 319 320 319 319 319 320 321 322 322 323 323 324 325 326 327 327 329 330 329 329 328 329 327 326 326 327 327 327 329 329 328 328 327 328 327 327 326 328 329 329 329 330 331 330 328 328 328 328 328 329 329 330 329 329 327 326 328 329
285 287 288 287 287 293 303 305 304 302 302 308 305 294 295 305 306 306 310 311 311 314 312 311 312 313 314 312 313 315 315 316 315 315 316 317 317 318 318 319 318 318 318 318 318 319 320 320 321 322 322 323 324 325 327 327 326 327 326 325 323 322 321 322 323 323 323 324 325 326 328 329 329 327 326 328 328 330 328 328 329 330 329 328 327 328 329 329 329 329 330 329 329 329 327 326 325
284 285 290 289 289 293 301 300 301 295 294 302 305 293 289 302 302 305 307 308 308 311 310 310 311 312 312 312 312 313 313 314 315 316 316 316 316 316 316 316 317 317 317 318 319 319 320 319 318 319 320 320 322 323 325 326 325 326 326 325 323 321 320 320 323 324 323 323 323 324 326 328 329 328 328 328 328 328 328 328 328 328 328 326 327 326 326 327 327 327 328 327 327 327 327 323 323
282 286 290 291 289 288 291 299 298 296 301 303 300 297 295 294 300 307 307 306 306 307 308 309 310 310 311 311 312 313 314 314 314 315 315 315 315 315 314 315 316 316 317 318 318 318 319 318 317 317 318 319 319 321 321 324 324 324 324 323 324 323 323 322 323 322 322 323 321 322 323 325 326 327 327 328 328 328 330 329 329 326 327 327 327 326 326 326 326 326 326 327 328 328 327 325 324
284 289 291 289 291 290 289 295 292 295 296 291 293 301 295 294 302 308 306 302 305 305 306 307 309 310 310 311 312 313 314 313 314 314 314 314 314 314 314 314 316 316 316 315 315 316 317 318 317 316 317 317 318 320 319 320 322 321 321 321 321 322 324 323 323 322 320 320 319 320 322 323 323 324 325 326 326 326 328 328 329 328 328 328 329 328 328 327 326 326 326 327 328 328 328 328 326
289 291 292 291 290 290 290 288 290 291 290 286 292 297 289 289 300 301 305 304 303 305 306 307 308 309 310 310 311 313 313 313 314 314 313 314 315 314 314 314 314 314 315 317 316 316 316 317 317 315 315 316 318 318 317 317 318 320 319 319 319 319 320 320 320 319 318 319 318 319 320 320 320 321 322 323 324 324 325 327 327 328 328 328 330 330 330 329 328 328 329 328 329 328 329 328 327
290 292 291 290 288 287 288 285 287 289 283 287 294 296 292 286 296 300 299 302 306 306 306 307 309 309 310 310 311 311 312 312 312 313 313 313 314 314 314 313 313 314 316 315 314 314 314 313 313 313 313 314 315 317 318 317 318 318 318 319 318 318 318 317 316 316 317 317 316 317 318 319 320 320 320 321 322 323 323 326 327 327 328 328 328 328 328 329 330 330 330 330 329 328 328 328 327
291 289 287 286 285 284 284 282 288 281 280 287 293 295 291 285 290 301 305 305 310 308 305 305 307 307 308 309 310 311 311 311 312 311 310 311 312 312 313 313 312 313 313 313 313 313 313 312 312 311 312 312 312 313 313 314 316 317 318 318 318 318 317 316 315 314 315 314 314 314 316 317 318 319 320 320 320 320 321 321 322 322 322 322 323 324 325 326 328 329 329 329 329 329 329 328 327
289 287 285 282 276 279 276 283 278 278 280 283 292 292 289 286 290 299 306 304 309 309 308 307 307 307 308 309 310 310 310 310 310 310 310 310 310 310 311 311 312 312 311 312 312 311 311 310 309 310 310 310 311 311 310 311 312 314 316 316 317 317 316 315 315 314 315 313 313 312 313 314 316 316 318 319 318 317 318 317 316 315 315 317 319 321 322 324 326 327 327 328 328 328 328 328 327
286 286 283 280 276 275 271 273 274 277 281 286 290 295 288 292 297 301 303 305 308 307 308 308 308 308 308 309 309 309 309 309 309 309 309 309 310 310 311 311 311 311 311 311 312 311 310 309 308 310 309 309 310 310 309 309 310 311 313 315 315 315 314 315 314 314 314 313 312 311 311 313 314 315 316 317 317 316 313 311 312 311 311 311 314 315 316 319 322 324 326 326 326 328 328 328 327
286 287 287 282 280 277 272 275 274 278 278 282 290 289 283 288 292 302 301 304 306 308 308 308 309 309 309 309 309 309 309 309 309 308 308 309 309 310 310 311 311 311 310 310 310 309 308 307 307 309 309 309 309 309 308 308 309 310 311 312 313 313 312 312 312 313 311 310 310 310 311 312 312 313 315 316 316 314 309 309 310 309 308 308 308 308 308 311 313 316 322 325 326 327 327 328 327
285 288 289 282 285 281 281 278 278 278 280 281 285 286 292 293 301 303 305 305 306 307 306 307 307 307 308 307 306 306 307 307 308 308 308 309 310 310 310 310 309 308 309 309 308 307 306 306 307 307 307 307 308 309 307 308 308 309 309 309 310 311 312 309 308 309 309 309 308 308 309 311 311 312 313 314 314 312 307 306 306 307 307 307 306 305 305 307 307 311 316 317 319 325 325 326 326
285 288 285 287 290 288 279 280 282 278 281 281 287 290 295 300 301 302 303 304 303 305 305 305 305 305 305 304 304 305 306 307 307 307 308 308 308 308 308 308 308 308 308 308 308 307 307 308 308 308 308 309 309 309 308 308 308 308 307 307 308 309 309 307 306 306 307 307 307 307 308 308 310 311 311 313 312 311 306 305 304 304 304 305 304 303 303 303 304 307 308 310 313 314 316 320 324
286 284 286 289 292 290 286 279 277 272 276 279 288 287 289 290 285 301 301 300 301 302 303 303 303 303 302 303 303 304 305 306 307 307 307 307 307 307 306 306 307 306 306 307 308 309 308 309 309 308 308 307 308 308 308 307 307 307 306 306 307 308 308 308 307 306 306 305 304 305 305 305 306 309 310 310 310 310 306 305 302 302 302 302 301 301 301 301 302 303 304 306 308 309 311 314 319
291 287 291 290 279 282 282 281 275 274 277 282 286 291 290 289 289 296 297 298 299 301 302 301 301 301 301 302 303 304 304 305 304 305 305 305 305 305 305 305 305 306 308 308 309 309 309 309 309 308 307 307 307 307 307 307 307 307 306 305 305 306 307 308 307 307 305 304 304 304 304 305 305 306 306 307 307 307 307 304 302 301 300 299 300 299 300 299 299 301 302 302 303 305 307 309 313
291 290 290 290 287 282 281 280 280 281 277 281 284 289 284 294 294 298 298 300 300 301 301 300 301 301 301 302 302 303 303 303 303 303 304 305 305 305 304 304 305 306 306 307 308 308 307 307 307 307 307 306 305 304 305 304 305 305 305 305 304 305 306 307 307 306 304 303 303 303 303 303 304 305 305 305 304 304 305 304 301 300 299 298 298 298 298 298 298 298 298 299 300 301 303 304 308
285 286 283 287 287 287 287 285 281 279 278 281 283 282 285 292 299 300 300 301 301 301 300 300 301 301 302 302 303 303 303 302 303 303 303 304 304 304 304 304 305 306 307 307 307 306 306 306 305 305 304 303 303 303 304 303 304 304 304 303 303 303 303 305 305 306 304 303 303 303 302 303 303 302 303 304 303 303 303 302 300 299 298 298 297 297 297 297 297 296 297 297 298 299 299 301 304
287 286 284 285 283 283 281 279 284 285 284 282 283 281 285 289 299 301 301 302 302 302 301 300 301 301 302 302 303 303 302 302 302 301 301 302 303 303 303 303 303 304 305 305 306 305 304 303 303 303 303 303 303 303 303 303 303 303 302 302 303 303 303 303 303 303 304 303 302 302 302 301 300 301 301 301 301 302 302 301 299 298 297 297 297 297 297 296 295 295 296 297 297 297 298 299 302
Wind_Speed
5 6 4 2 2 2 2 4 0 3 2 4 3 3 5 0 2 3 3 3 3 1 0 2 8 5 1 4 13 11 8 1 1 4 3 2 4 8 10 12 10 10 11 10 9 9 10 13 16 18 18 16 15 14 14 14 14 14 14 13 13 13 14 13 13 14 14 15 15 15 15 15 15 14 13 13 13 13 14 14 14 13 13 13 14 13 13 12 12 13 13 13 14 14 13 13 14
4 5 2 2 1 1 0 1 2 1 4 1 8 1 6 1 3 6 5 5 2 1 4 10 12 13 15 16 12 5 11 10 4 4 5 8 8 6 9 11 13 13 11 10 9 8 8 11 17 17 18 17 16 15 15 14 14 14 15 14 12 13 13 13 13 13 14 14 15 15 15 15 15 15 14 13 13 13 13 14 14 14 14 14 13 12 12 12 12 12 13 13 13 13 13 12 13
3 5 3 4 3 3 0 2 2 1 4 6 8 7 2 4 5 6 7 6 9 10 6 10 9 5 3 3 8 5 2 7 7 8 7 10 11 6 9 10 10 11 12 9 9 9 7 10 16 16 17 17 16 16 15 14 14 14 14 13 13 13 13 13 13 14 14 14 14 15 15 16 16 15 15 15 13 12 12 13 15 14 13 14 13 12 12 11 11 11 12 12 13 13 13 12 12
2 3 1 2 1 4 1 3 4 7 4 7 5 6 3 2 5 5 1 13 12 6 2 3 6 3 6 14 8 10 8 3 4 5 7 6 5 9 9 9 10 10 8 8 9 9 7 12 16 16 17 16 16 16 15 14 14 14 14 13 13 13 13 12 13 13 13 13 14 14 15 15 15 15 15 14 14 14 13 13 13 13 13 13 12 12 11 11 11 10 11 12 12 12 12 11 10
2 2 2 4 4 1 1 2 3 4 7 6 6 5 2 3 3 1 3 1 6 1 1 7 7 4 6 8 1 2 5 7 3 3 3 1 7 8 10 9 10 11 9 8 8 8 8 16 14 14 15 16 16 15 15 15 14 14 14 13 13 13 12 12 12 13 13 13 14 14 15 15 15 14 15 15 14 14 13 13 13 13 13 13 13 11 11 10 10 10 10 11 12 11 11 10 10
2 4 2 2 0 2 3 0 1 5 7 3 2 2 3 1 5 3 3 3 3 3 1 1 7 4 5 5 2 4 10 6 4 2 5 7 10 9 10 9 10 10 8 7 7 6 8 15 13 13 14 16 16 15 15 15 14 14 13 14 13 13 12 11 12 12 12 13 13 14 14 14 13 14 14 14 13 12 12 11 11 11 11 12 12 11 10 10 9 9 10 10 10 11 11 10 9
1 3 4 3 2 3 4 3 7 5 9 5 4 4 3 3 4 2 3 5 5 7 3 8 15 13 11 2 8 4 1 6 5 6 5 9 9 9 9 10 10 11 9 8 7 7 10 12 12 12 13 15 15 15 15 14 14 13 13 12 13 13 12 11 10 11 12 12 13 14 14 13 13 13 13 12 12 11 11 10 10 10 10 11 11 11 10 9 9 9 9 9 9 9 9 9 9
1 1 1 2 1 1 1 2 5 4 6 5 4 7 10 2 2 2 2 2 3 2 4 6 1 11 6 5 6 4 5 0 7 6 7 10 10 10 9 11 11 11 10 8 7 7 12 12 12 12 13 14 15 14 14 14 13 12 12 11 11 12 11 10 9 9 10 11 12 13 13 13 12 12 12 12 11 11 10 10 10 10 10 10 10 10 9 8 7 8 8 9 8 8 9 9 9
2 3 1 5 1 2 0 4 6 3 5 5 10 9 11 3 3 1 5 1 1 1 4 6 3 9 4 10 6 4 3 7 7 10 10 11 10 9 8 10 12 10 11 8 7 6 7 11 11 11 13 13 14 14 13 13 12 12 12 11 10 9 10 10 10 9 9 11 11 12 13 13 12 11 11 11 11 10 10 10 10 10 10 10 9 9 8 8 7 7 8 8 8 8 9 9 9
1 1 1 2 3 3 1 6 1 5 3 5 7 11 9 1 4 7 5 2 2 2 2 3 7 16 13 13 8 4 5 7 10 10 8 9 9 9 10 10 11 12 11 8 6 6 5 13 11 11 11 13 13 13 13 12 12 12 11 10 8 10 10 10 10 10 9 12 12 11 12 12 11 11 10 10 10 10 10 10 10 10 10 9 9 8 7 7 7 7 7 7 8 9 9 9 9
0 4 2 2 1 2 6 6 5 6 6 5 7 12 13 7 4 4 6 5 3 3 9 15 14 15 10 7 4 2 8 9 11 10 7 9 10 10 9 8 9 9 10 10 7 5 6 7 14 11 10 10 10 10 10 9 10 9 9 8 8 9 10 10 10 10 10 11 12 12 12 12 11 10 10 10 10 10 10 10 10 9 9 8 8 7 6 6 6 6 6 7 8 9 9 9 9
1 1 1 2 2 6 4 2 4 8 8 5 8 10 4 4 5 4 8 11 5 5 6 1 6 14 12 8 6 8 9 6 6 8 9 9 9 10 10 8 8 8 9 10 8 6 6 6 6 12 11 10 9 10 9 9 8 8 8 8 9 10 10 10 10 10 10 11 12 12 11 10 10 9 9 9 8 9 9 9 9 9 8 8 7 6 5 4 5 5 6 7 8 8 8 8 8
2 1 5 3 3 1 2 2 6 4 5 6 6 5 0 3 8 12 10 11 10 5 2 1 20 5 7 5 5 6 8 6 8 9 10 8 9 8 10 9 9 9 8 8 8 7 6 5 6 6 8 12 10 9 9 9 8 8 8 8 9 10 10 9 9 10 10 10 10 10 9 9 9 8 8 8 7 8 7 8 8 8 7 7 7 5 4 3 4 5 6 7 8 7 8 7 8
3 5 5 3 0 1 1 3 3 4 6 7 3 8 7 2 8 12 14 14 10 3 1 14 9 13 12 9 8 7 7 7 10 10 9 9 9 11 11 9 9 8 8 7 7 7 6 5 5 5 6 5 5 8 10 9 8 8 8 8 9 9 9 9 9 9 9 9 9 8 8 8 7 7 7 7 7 7 7 7 6 7 7 6 6 5 4 3 3 4 5 6 7 6 6 7 6
1 1 1 0 1 0 2 3 2 2 7 4 4 4 4 2 9 15 20 13 2 5 10 4 12 10 8 13 8 10 10 11 12 12 11 11 13 11 11 8 8 8 7 7 5 6 6 4 4 4 5 4 4 4 3 6 9 9 8 9 8 9 7 8 8 8 8 8 7 7 7 7 6 6 5 5 6 6 6 7 6 5 5 5 5 5 3 2 3 3 5 5 5 5 6 5 5
3 2 1 1 2 3 6 2 2 1 8 2 10 4 6 10 6 11 1 5 7 6 3 6 3 1 15 4 16 14 14 13 13 13 13 13 12 10 10 8 7 6 5 5 5 4 5 5 4 4 4 4 3 3 3 3 8 9 9 8 8 7 8 8 8 8 7 6 6 5 5 3 3 2 2 2 3 4 5 2 5 4 4 3 4 4 3 2 2 3 3 4 4 4 5 4 4
1 1 0 1 3 2 4 3 3 2 6 4 10 4 4 5 5 6 7 7 17 4 4 5 1 6 13 8 15 15 14 14 14 15 14 11 9 8 7 6 6 5 5 5 5 5 4 5 4 4 4 4 3 3 3 3 4 9 6 7 7 7 7 8 7 8 6 5 3 4 7 5 4 4 4 2 3 2 2 3 4 4 3 3 3 3 2 1 1 2 2 3 3 4 4 4 5
2 1 2 4 4 3 4 4 4 1 3 5 9 7 3 11 5 5 13 12 10 13 12 8 16 11 11 11 13 13 14 15 14 15 12 10 8 8 9 7 6 7 6 6 4 4 5 4 4 3 3 4 3 3 2 2 2 5 2 2 2 4 6 6 4 2 4 1 5 4 3 3 3 3 2 3 2 1 1 1 1 1 2 2 2 2 1 1 1 2 3 3 4 4 5 3 3
3 1 2 7 4 6 3 3 4 2 6 5 3 5 5 7 13 3 10 6 12 15 11 13 15 12 13 14 13 14 13 13 12 14 14 14 10 10 8 7 6 7 7 7 5 4 4 4 3 4 3 3 3 3 2 2 3 2 2 2 1 3 1 4 3 2 3 3 3 3 2 2 2 1 1 2 1 1 1 1 1 0 1 1 2 1 1 1 1 1 3 5 5 7 4 3 3
4 4 4 7 5 4 5 5 9 4 4 7 8 6 2 5 6 3 10 10 12 18 16 13 14 16 14 12 13 12 11 10 11 14 14 12 10 10 10 9 7 6 7 6 6 3 3 4 3 3 3 3 3 3 2 4 3 2 2 1 2 3 4 4 3 3 3 3 3 3 2 2 2 1 3 6 5 0 1 2 1 1 1 2 2 3 4 3 2 3 3 4 3 3 3 3 4
2 3 5 4 3 3 8 2 5 5 1 5 5 2 4 3 3 10 16 15 5 8 16 23 19 17 17 13 13 12 10 10 10 11 13 12 9 7 8 8 7 7 6 5 5 4 3 3 3 3 3 3 3 4 4 3 2 2 1 1 3 3 3 3 3 4 3 3 3 2 2 1 2 2 3 2 2 0 0 0 1 2 2 2 4 1 2 3 3 3 2 3 2 2 3 4 3
2 6 5 6 2 1 14 3 7 4 4 1 4 1 3 1 2 14 21 17 12 13 10 15 19 20 20 17 13 11 11 11 10 11 13 13 13 10 8 7 6 5 6 5 5 4 3 3 3 4 4 3 3 3 3 4 3 1 1 1 2 2 3 2 3 2 2 2 2 3 2 1 1 1 2 3 2 1 0 0 1 2 2 1 2 1 2 2 2 3 3 3 3 2 2 3 3
3 3 4 5 6 6 5 5 3 1 3 4 1 6 6 4 4 1 5 10 10 10 17 15 17 17 16 13 13 12 12 11 11 11 13 12 11 10 10 9 9 8 5 4 4 4 3 3 3 4 4 3 3 3 3 2 2 1 1 1 2 2 2 2 1 2 2 2 2 2 2 1 0 0 1 1 2 1 1 0 0 1 1 1 2 1 1 1 2 2 3 4 4 4 4 3 4
3 4 3 7 4 8 11 10 9 4 2 2 3 3 7 8 7 1 11 7 15 18 17 15 16 16 16 15 12 13 12 12 9 8 9 12 13 12 11 10 7 5 6 6 5 4 4 4 3 4 3 3 2 3 3 3 2 1 1 1 1 1 3 1 1 1 1 2 1 0 1 1 0 0 1 1 1 1 2 1 0 0 0 1 0 0 1 1 1 1 2 3 3 3 4 4 4
2 4 3 5 4 7 8 7 7 4 4 4 3 7 6 4 7 9 10 14 15 15 14 14 15 15 13 13 12 11 10 7 8 7 6 6 8 9 7 7 7 6 7 7 5 5 4 3 2 3 3 3 3 3 3 3 2 1 1 1 0 1 2 1 1 1 1 1 1 1 0 1 1 1 1 2 0 1 2 2 1 1 1 0 0 1 0 1 1 1 2 3 2 2 3 4 3
5 9 3 4 5 7 5 5 7 5 1 3 16 11 10 12 16 12 6 10 12 16 15 15 14 14 13 12 11 10 8 8 8 9 10 8 7 10 8 6 6 7 6 6 6 4 3 2 2 2 3 3 2 3 3 3 2 3 1 1 1 1 1 1 1 0 1 1 1 1 1 1 1 1 2 2 1 2 1 2 2 2 1 0 0 1 2 2 1 1 1 2 2 1 2 3 2
3 3 4 6 8 6 6 5 6 1 0 2 11 12 11 4 4 3 8 9 13 16 16 13 14 14 12 10 8 6 8 7 8 9 9 8 8 7 8 6 6 5 5 6 4 3 2 2 1 1 1 2 3 3 2 3 3 2 2 2 1 2 1 0 1 1 0 1 2 2 1 2 2 2 2 2 2 2 2 2 2 1 2 1 0 1 1 1 1 2 3 3 3 2 2 2 1
4 4 4 5 6 7 7 6 7 1 2 5 18 12 3 2 7 14 14 8 6 17 14 14 12 12 11 10 8 7 7 6 7 8 12 10 6 6 6 6 7 6 5 4 3 3 2 1 1 0 1 2 3 2 2 2 2 2 2 2 2 1 0 0 0 1 2 2 2 1 1 1 2 2 2 2 2 2 2 2 2 1 2 2 2 0 1 1 2 3 3 2 2 2 2 2 2
3 3 5 5 4 3 5 7 5 2 1 5 11 9 3 3 10 16 14 14 11 13 15 14 13 11 11 10 9 7 7 7 6 6 6 6 6 5 6 5 6 5 3 4 4 4 3 1 1 0 1 2 3 2 2 1 2 2 2 1 0 0 0 0 0 0 1 1 1 0 0 1 2 3 3 2 3 2 2 2 1 1 1 2 2 1 0 1 1 2 3 2 3 3 3 3 2
3 1 2 4 2 4 9 3 2 1 1 6 7 4 4 3 6 10 15 13 13 12 14 14 12 11 12 11 11 9 7 7 7 6 6 6 6 6 7 6 6 5 4 3 4 3 1 1 1 1 1 0 1 2 1 1 1 1 0 2 1 0 0 0 1 1 1 0 0 0 1 2 2 3 2 3 2 2 3 3 3 2 0 1 2 2 1 2 2 3 3 3 4 2 4 4 2
1 2 1 1 1 3 4 1 1 2 2 0 3 4 1 3 4 4 1 14 18 16 15 14 11 10 13 10 10 9 7 7 8 8 7 6 6 6 7 6 6 5 4 4 4 3 2 2 1 1 0 0 1 1 1 1 1 0 0 2 1 1 2 1 1 2 1 1 1 1 2 2 2 3 2 2 2 2 3 3 3 2 0 1 2 2 3 2 2 4 3 3 4 5 4 5 3
1 2 3 3 4 4 6 3 3 5 1 4 6 6 6 1 1 3 5 7 12 18 16 13 13 12 13 12 10 8 9 10 9 9 8 7 6 6 6 6 4 4 5 4 4 3 3 2 2 1 1 1 1 1 2 2 2 0 1 0 2 1 1 1 1 1 1 1 1 1 2 2 3 3 2 2 3 3 3 4 4 3 2 2 3 3 2 2 2 2 3 3 4 5 4 6 3
4 2 3 0 1 4 1 1 3 3 2 7 4 3 3 2 5 5 9 8 12 12 12 13 14 14 13 13 11 9 11 9 8 8 8 7 6 6 7 6 6 6 5 5 3 3 3 3 2 1 1 1 1 1 2 2 2 3 2 2 1 1 0 1 1 1 1 0 1 2 1 2 2 3 3 3 3 4 4 4 5 4 4 4 4 3 2 1 1 2 3 3 3 4 4 5 6
2 2 3 3 4 1 1 3 2 2 3 1 4 6 5 10 12 11 12 10 12 9 13 12 11 11 13 13 12 10 10 11 8 8 8 7 6 8 7 8 8 7 6 5 4 3 3 3 2 0 1 2 2 1 1 2 2 2 3 3 3 3 2 1 2 2 2 2 2 2 2 1 1 3 4 4 4 4 4 4 5 6 5 4 3 1 2 1 2 3 4 3 3 3 3 4 6
4 1 0 1 0 3 5 3 1 3 5 6 1 4 6 11 12 11 12 15 12 13 13 14 13 13 13 12 11 10 10 11 11 7 7 8 9 8 7 8 9 8 7 6 5 4 4 3 3 3 3 3 2 1 2 2 1 2 2 3 3 3 2 1 1 2 4 3 2 2 2 2 2 2 2 3 4 4 4 4 5 7 5 2 1 2 3 3 3 4 4 3 2 4 5 4 5
5 6 4 3 4 2 3 3 2 10 5 5 3 8 10 11 4 4 7 3 5 4 12 12 11 11 10 10 10 10 10 12 10 8 8 8 8 9 8 8 9 8 6 6 7 5 5 5 4 3 4 3 2 3 3 3 1 1 2 3 3 2 2 2 1 1 1 1 2 2 2 2 1 1 1 2 2 3 4 4 6 6 0 1 2 3 4 4 4 5 5 5 5 4 5 5 4
3 3 1 1 1 1 2 0 4 9 8 7 3 10 9 9 4 7 9 9 7 6 8 8 8 9 10 11 11 11 10 9 9 9 8 9 10 8 8 8 9 10 8 8 8 8 7 5 7 7 5 5 5 5 4 2 2 2 1 1 1 2 2 3 2 2 1 1 2 2 2 2 1 1 0 0 0 2 3 4 5 3 0 2 4 4 2 3 3 4 3 3 5 5 4 4 4
3 2 1 2 1 3 1 3 3 2 9 3 2 13 9 8 8 8 11 8 6 5 3 8 10 9 9 13 12 11 7 7 11 10 8 9 8 8 8 7 8 10 6 8 8 7 7 8 8 6 6 7 7 6 4 3 2 2 2 1 0 1 1 3 5 5 4 3 2 2 2 2 0 0 0 0 1 3 4 5 4 2 2 1 2 2 3 4 3 3 3 4 4 5 4 3 3
2 3 1 2 4 2 2 5 5 4 13 5 8 11 7 8 6 6 11 8 3 5 5 4 7 10 9 9 10 10 9 8 12 10 9 9 9 9 8 7 8 7 6 7 6 7 8 7 6 5 6 6 6 5 4 3 2 2 1 0 1 0 1 0 1 2 3 3 2 1 1 2 2 2 1 1 2 3 3 4 4 2 3 3 3 3 3 5 4 5 5 5 5 2 4 2 3
5 2 2 4 3 1 1 5 5 6 3 10 7 10 6 7 8 7 5 5 6 3 6 6 5 9 9 7 7 8 9 10 13 11 10 9 8 8 7 8 7 7 7 8 7 7 6 6 6 5 5 6 6 6 6 5 4 3 3 3 1 2 2 1 0 0 1 2 5 3 2 2 2 2 2 2 2 3 3 4 4 3 3 3 3 4 3 4 4 4 4 5 4 6 4 4 6
0 5 4 2 1 0 4 1 8 13 10 13 10 6 2 2 7 3 5 6 8 8 9 8 8 9 8 7 9 6 6 11 12 11 10 8 9 8 8 8 7 8 8 7 6 6 5 7 6 5 6 6 5 6 6 6 7 7 5 3 4 4 3 5 6 7 6 5 5 6 6 3 3 3 3 3 3 4 4 5 5 4 3 3 4 4 5 5 5 5 6 5 5 5 7 4 3
1 4 7 5 3 7 9 8 10 2 4 5 15 3 3 1 2 2 5 4 7 7 9 7 8 8 6 9 9 8 6 9 11 9 9 6 9 9 9 9 9 7 7 4 3 5 6 7 7 7 7 6 6 7 7 6 6 6 7 7 7 6 6 7 8 7 7 7 6 3 5 5 4 3 3 3 3 3 4 4 5 4 3 3 2 3 4 4 5 5 5 5 6 5 6 6 6
3 6 8 6 7 8 9 7 10 4 7 11 7 6 2 2 3 4 2 4 8 7 8 7 6 5 5 7 6 7 8 10 11 9 7 7 8 9 8 8 7 7 5 3 4 6 7 6 5 6 6 6 6 7 8 6 6 6 7 7 6 6 4 3 3 3 4 4 3 5 5 6 7 7 7 5 5 4 4 4 4 3 4 3 3 3 4 5 6 6 5 5 5 5 5 7 7
3 3 10 9 7 8 8 9 8 6 1 2 2 1 6 4 8 6 2 4 7 6 7 6 5 6 6 7 6 7 7 9 11 8 7 8 9 6 8 7 7 5 4 4 5 6 6 5 4 5 5 6 6 6 8 7 7 7 7 8 7 7 7 6 7 6 4 4 5 5 4 6 7 7 7 7 6 6 6 6 5 3 4 4 3 4 5 5 4 4 4 5 6 6 7 8 8
4 3 10 8 10 11 9 8 5 5 9 5 4 1 3 6 4 6 6 4 7 8 8 7 7 7 7 9 7 8 7 8 10 7 7 9 7 6 6 8 6 5 5 5 4 4 4 3 3 4 6 5 6 7 7 7 6 6 6 6 6 6 6 6 6 6 7 7 8 8 7 7 6 6 7 7 7 8 7 7 7 5 4 5 3 4 5 5 5 6 6 6 5 6 6 7 7
3 3 3 4 3 3 7 7 6 3 5 7 10 7 4 1 4 8 5 4 9 9 8 8 8 9 8 10 9 9 7 10 10 7 7 9 6 6 5 5 5 3 2 3 3 4 4 3 5 7 8 8 7 6 6 7 6 5 6 6 6 6 6 5 6 8 8 8 9 10 9 9 8 7 6 6 8 9 8 7 7 7 6 5 5 5 5 5 6 6 6 7 7 7 6 6 7
2 4 3 2 1 1 3 3 4 5 5 10 13 11 6 3 6 10 12 12 15 9 6 7 9 9 9 9 10 8 9 9 9 7 7 8 6 5 5 5 3 2 3 4 5 5 5 5 5 10 9 8 8 7 6 6 6 5 5 5 6 6 6 6 7 8 8 9 9 10 9 8 8 8 8 8 8 8 8 8 8 8 8 9 8 9 8 8 7 6 6 7 7 8 7 7 8
3 1 4 2 6 2 1 3 2 5 6 4 8 12 4 8 4 8 5 4 12 16 13 11 11 10 10 9 9 7 9 8 8 7 7 8 7 6 5 5 3 0 2 5 4 5 6 6 8 9 8 7 7 7 7 6 5 5 5 6 7 6 6 6 7 7 8 8 9 8 7 7 8 7 9 9 9 11 10 9 11 11 11 10 10 9 9 9 9 8 8 7 7 8 9 9 7
6 4 3 8 2 2 4 1 2 5 5 2 9 8 1 9 3 3 6 3 8 11 10 11 11 10 10 9 10 6 9 9 7 7 7 6 6 6 4 3 3 2 4 4 5 5 6 6 6 7 6 5 6 6 6 6 6 6 5 6 5 5 6 6 6 6 6 6 6 7 7 7 8 8 8 9 11 13 11 12 12 11 10 10 10 10 9 10 8 8 8 9 8 8 7 7 7
8 9 7 6 4 4 5 2 0 3 4 2 3 13 6 2 3 2 5 6 7 10 8 9 10 10 10 8 7 7 7 8 7 7 7 6 5 4 3 3 2 2 2 2 5 6 6 5 5 6 4 4 4 5 5 5 6 5 5 6 6 6 6 6 6 6 6 5 5 6 6 6 6 6 7 8 8 9 10 9 9 10 10 10 10 11 11 11 11 10 9 9 9 8 8 10 11
8 4 9 7 4 3 4 3 5 7 5 2 3 9 4 8 3 2 0 8 9 10 11 9 10 9 9 8 8 8 7 6 6 6 6 6 5 4 3 3 2 2 2 3 6 7 6 5 5 6 5 4 4 4 4 5 6 7 7 7 7 7 7 7 7 7 7 7 6 6 6 6 6 7 7 7 7 8 10 9 9 9 9 9 10 10 10 10 11 10 9 10 8 8 9 9 9
3 5 5 4 11 5 1 4 5 4 4 2 1 1 3 2 1 3 6 11 12 11 10 11 10 9 10 8 8 8 7 7 6 6 6 6 4 3 3 3 3 3 3 4 7 6 6 5 5 5 4 4 4 4 5 5 6 6 7 7 7 7 7 6 7 6 6 6 6 6 6 6 6 6 6 7 6 8 9 9 9 9 8 8 8 9 9 8 10 9 8 9 10 9 10 11 10
4 8 10 9 6 4 3 1 1 3 5 1 2 2 3 3 3 7 11 14 14 13 11 10 11 10 10 9 8 8 7 7 6 6 6 5 4 4 5 4 4 5 6 5 6 6 6 6 6 6 5 5 5 5 5 6 6 7 7 7 7 7 8 8 6 7 7 7 6 6 6 6 6 5 6 6 7 8 9 9 8 8 8 8 9 9 9 9 9 8 9 9 10 10 10 11 10
6 7 8 2 2 4 5 5 1 2 4 2 1 3 6 6 3 6 10 12 13 12 13 11 11 11 11 9 8 8 8 7 6 5 5 6 5 6 6 5 6 5 5 6 7 6 7 7 7 7 7 7 5 6 7 6 6 7 7 8 8 8 7 7 7 7 7 7 7 6 6 7 7 7 7 6 7 7 7 10 8 9 9 10 10 9 10 10 10 9 9 8 8 10 9 9 10
11 8 7 10 4 7 2 4 2 2 1 2 2 5 3 5 5 11 13 14 15 14 14 13 13 11 12 10 10 9 8 7 7 7 7 6 6 6 7 7 6 6 7 7 8 9 9 8 8 8 8 7 6 5 6 7 6 6 6 7 7 7 7 7 7 8 7 8 8 8 8 8 8 9 9 9 9 8 7 9 9 10 10 11 10 10 11 10 11 8 9 9 9 10 10 10 10
1 4 9 2 6 4 3 4 4 7 3 2 3 6 4 6 7 15 15 16 16 18 15 15 12 12 11 10 10 9 8 7 7 7 7 7 6 6 6 7 8 7 7 8 8 9 10 8 9 8 8 8 8 8 7 7 6 6 6 6 7 7 7 6 7 7 9 9 9 9 9 9 10 8 8 9 8 9 9 11 10 10 11 11 11 11 11 12 11 9 9 9 11 12 12 10 11
4 5 5 2 1 2 5 1 2 5 7 5 4 3 4 5 11 14 15 17 17 17 16 14 13 13 12 12 11 9 9 9 8 9 8 7 6 7 7 7 7 7 7 8 8 9 7 7 8 8 9 8 8 6 7 6 5 6 6 7 7 6 7 6 6 7 9 9 9 10 9 8 8 10 9 9 9 10 10 10 11 12 12 11 12 12 12 11 11 12 11 11 11 12 13 12 11
8 8 7 8 7 4 7 6 2 3 7 5 5 6 4 4 4 14 15 14 14 14 15 14 13 13 12 10 10 10 9 8 9 8 8 7 6 7 6 7 6 8 8 9 8 8 8 7 6 6 7 6 6 7 6 6 5 5 6 6 7 6 5 6 6 6 8 9 9 8 7 8 10 9 10 10 10 9 9 11 11 12 12 12 12 12 12 11 13 13 13 10 11 12 13 12 12
Wind_Direction
323 312 310 340 55 74 53 358 42 309 76 241 302 274 255 292 256 340 267 333 315 310 330 78 62 25 132 141 120 98 39 145 226 142 204 141 115 136 136 133 134 137 137 136 139 137 138 136 134 132 129 127 129 129 127 125 122 119 117 113 111 110 111 108 105 104 105 106 106 106 106 106 107 107 106 107 107 107 105 104 104 105 104 105 103 100 98 94 93 91 92 90 88 86 84 82 81
296 307 12 353 66 38 299 110 98 334 34 339 253 134 251 289 354 241 247 205 218 87 118 88 85 83 91 116 136 152 46 46 16 110 89 110 104 118 141 142 143 144 139 135 135 135 138 138 137 133 132 130 133 132 129 127 122 120 120 117 113 114 112 109 105 106 105 105 107 107 107 107 108 106 103 100 102 106 110 109 106 105 105 103 100 99 96 95 91 89 90 89 88 87 84 81 81
323 353 6 24 29 69 84 33 256 177 171 229 263 218 323 325 251 297 240 167 137 141 109 95 87 71 63 114 43 40 92 53 53 69 100 124 120 155 148 138 132 135 135 134 135 137 136 141 137 133 132 135 134 133 129 124 122 122 122 120 119 120 115 112 109 108 108 107 108 109 108 106 106 105 104 104 102 102 102 105 108 107 107 103 102 102 101 94 90 86 82 82 81 77 76 75 75
357 32 94 60 244 24 67 30 91 140 183 214 287 267 210 242 324 308 153 141 146 147 140 41 52 326 96 63 103 71 86 59 61 103 120 161 171 147 142 137 132 130 130 134 138 138 135 140 137 135 135 134 134 130 127 124 124 122 123 123 124 121 117 113 111 111 111 112 112 112 110 110 107 103 103 103 105 103 103 105 105 107 106 105 104 102 98 91 86 75 74 79 77 72 70 69 69
35 329 76 88 109 357 111 196 151 124 212 193 202 270 267 60 17 340 77 55 148 271 55 134 89 37 80 109 117 95 112 112 79 26 109 68 123 141 137 133 130 133 132 131 129 127 137 137 137 135 134 132 131 129 127 127 127 125 125 126 126 124 121 116 113 112 114 116 115 115 114 109 105 103 104 104 103 101 98 99 100 100 100 97 93 90 87 87 85 78 68 65 68 68 64 62 62
49 36 353 88 157 190 55 63 264 206 233 143 239 245 158 314 39 19 326 37 12 46 356 48 131 159 58 36 38 108 148 138 151 88 155 169 145 138 130 125 129 128 124 120 123 129 135 137 136 132 131 131 131 130 127 128 127 127 127 128 128 127 123 120 118 116 115 117 118 116 113 108 107 106 104 103 102 101 100 103 106 107 106 105 105 103 102 96 90 82 74 64 59 59 61 62 65
356 36 355 28 8 58 173 178 227 224 261 166 240 276 258 104 315 61 326 1 19 42 321 111 118 110 86 96 57 54 47 125 127 172 187 142 127 125 124 126 127 124 122 123 120 122 134 131 130 128 129 131 132 130 127 127 128 127 127 127 129 128 125 122 120 120 120 120 120 118 112 105 102 101 102 103 102 97 98 96 97 100 104 108 106 104 99 96 94 91 84 79 74 67 65 67 67
79 110 300 111 213 59 208 227 258 175 269 193 249 281 275 121 227 51 267 81 291 58 102 109 288 93 60 52 108 71 98 343 131 141 117 125 123 123 120 131 127 128 129 117 117 126 133 127 128 129 129 129 129 128 127 127 130 131 129 130 131 131 126 122 122 124 129 128 124 119 111 107 107 106 103 101 101 100 101 102 104 104 105 102 99 98 99 99 98 95 91 87 81 79 75 71 67
350 87 359 85 171 26 30 235 249 243 271 286 276 255 268 178 169 173 266 197 34 2 136 157 206 72 102 85 78 112 78 119 121 114 118 123 129 124 121 125 125 125 127 119 118 120 122 131 124 122 124 124 127 129 131 132 132 133 133 135 132 118 121 123 127 127 131 133 127 124 119 115 112 107 104 102 102 103 105 109 110 110 107 103 102 101 104 104 101 95 91 89 82 77 74 68 62
11 80 254 151 125 224 330 282 248 240 237 230 244 264 265 236 163 186 208 209 145 190 318 25 107 104 117 99 105 102 135 135 115 109 119 123 117 109 115 123 125 128 125 118 110 112 126 122 113 113 118 125 128 134 135 135 136 137 139 137 118 118 119 119 122 118 122 132 129 127 123 118 112 111 110 109 108 109 108 109 111 108 107 104 103 106 105 106 99 92 85 83 80 73 69 64 58
325 8 153 87 59 223 225 278 268 298 266 278 276 251 255 260 165 184 195 134 121 235 108 100 80 115 106 98 68 100 126 134 129 126 123 116 107 105 109 118 119 120 121 117 110 108 111 115 116 114 121 125 128 129 133 134 136 139 136 129 121 122 121 120 120 119 123 127 130 128 126 122 120 119 116 114 111 111 114 113 111 110 109 109 106 103 104 99 93 84 76 71 74 71 67 63 56
8 70 24 115 197 170 234 214 272 274 280 286 274 265 234 192 126 135 126 128 142 186 144 261 137 120 92 117 128 145 143 129 99 115 114 104 104 111 116 115 109 111 117 120 116 107 112 119 119 129 127 123 120 125 130 132 129 129 131 130 127 127 127 129 127 127 126 126 128 128 129 127 126 121 114 110 111 111 114 116 116 115 114 113 108 103 94 88 82 76 69 65 63 62 61 60 55
124 125 82 95 228 144 227 250 263 275 313 275 238 274 155 148 168 166 156 131 148 162 222 118 139 147 113 123 130 140 134 110 109 103 101 105 105 106 113 110 109 110 112 112 111 111 111 115 120 121 129 128 122 125 128 131 129 130 134 134 131 129 132 134 136 135 132 129 128 130 132 132 128 122 115 112 110 113 112 114 116 119 120 118 112 103 94 82 72 66 60 57 57 53 55 56 53
120 179 122 217 94 181 179 249 268 306 289 259 270 276 289 223 180 157 127 138 178 174 129 134 119 111 100 117 138 152 124 114 103 101 102 96 101 108 107 110 109 111 110 110 115 115 113 116 123 124 125 120 128 132 137 137 137 134 137 133 133 134 134 139 140 136 133 133 133 134 133 133 134 129 126 125 123 119 114 109 111 115 121 121 119 111 97 77 65 53 51 51 52 46 44 49 50
191 178 87 144 305 39 247 186 205 162 267 304 267 314 330 322 154 142 145 132 43 118 112 64 135 97 177 155 152 162 142 121 110 110 102 97 102 104 109 104 107 110 108 107 102 109 111 108 102 103 110 112 116 123 136 147 143 142 136 136 132 139 139 141 141 139 138 142 141 143 141 135 139 136 129 131 121 125 121 115 111 107 110 119 113 109 105 85 58 49 42 42 40 41 36 37 36
167 90 90 201 258 168 266 185 247 228 263 321 303 300 49 45 57 117 332 138 122 110 134 162 256 181 165 208 156 141 131 120 117 111 104 100 99 100 107 104 101 99 97 98 101 94 101 105 104 112 117 124 128 131 134 144 154 146 145 142 147 150 152 151 147 146 146 142 144 137 132 110 82 90 123 98 136 127 115 102 119 118 110 101 107 120 117 87 62 38 37 26 26 21 29 24 17
68 75 317 26 270 159 258 171 135 223 264 296 336 19 107 55 65 51 74 78 123 124 73 22 47 129 145 122 122 121 119 118 117 113 108 109 113 111 104 107 109 101 98 97 109 112 112 121 123 123 132 131 129 128 131 138 159 159 153 155 161 157 157 154 151 152 142 140 115 85 54 56 49 39 20 9 26 63 103 130 131 132 127 111 102 97 119 92 51 34 13 9 352 7 359 14 19
84 164 136 276 201 228 217 201 183 207 287 312 356 337 82 112 85 106 78 65 81 87 72 58 57 64 90 93 100 114 123 123 125 120 120 119 126 127 131 133 131 128 118 120 119 122 129 135 139 133 130 132 130 124 134 143 146 142 111 135 137 160 160 151 137 128 125 70 102 72 64 67 71 44 20 12 24 16 16 170 121 99 118 103 88 99 108 103 10 10 355 331 337 343 357 24 19
148 156 121 228 200 235 166 208 246 304 288 304 310 292 304 143 126 176 101 104 102 82 77 87 91 78 86 99 113 124 130 130 128 125 130 133 138 137 140 140 137 138 141 144 140 149 145 144 143 142 135 141 135 133 126 127 94 86 99 89 77 99 150 114 58 84 71 75 76 75 67 69 74 76 331 227 198 140 337 268 193 127 51 84 65 45 56 271 325 336 336 332 340 345 1 7 17
227 152 240 239 220 254 243 250 265 262 284 311 329 296 190 204 114 154 117 132 120 122 118 109 118 125 128 125 129 132 132 123 129 132 132 136 139 141 143 147 148 150 149 154 157 152 152 156 154 141 151 153 148 139 112 92 109 114 123 88 77 59 50 64 74 77 69 70 84 81 60 55 52 11 8 28 35 58 340 318 237 247 22 52 72 25 356 329 307 321 325 341 354 358 357 354 349
276 139 207 231 224 254 266 220 254 263 194 287 304 273 133 249 147 125 130 113 120 138 149 142 146 142 141 139 136 139 128 123 129 132 133 134 137 140 144 145 150 148 148 146 149 159 164 155 144 150 154 168 154 156 136 125 121 125 113 87 71 65 73 62 62 70 74 82 93 82 74 47 357 3 9 54 70 5 99 356 10 32 29 26 38 22 2 355 9 337 348 348 353 353 349 341 355
113 208 220 221 274 279 267 248 244 235 213 344 348 30 187 83 80 145 144 141 173 162 166 137 141 146 145 141 142 136 132 133 140 142 141 145 147 145 142 134 126 126 142 145 155 148 161 156 155 160 163 178 168 144 127 160 139 127 108 95 89 75 85 80 77 72 71 92 99 111 106 70 341 359 7 346 5 42 37 2 19 19 18 2 357 31 7 3 353 340 333 327 333 353 340 327 329
246 302 249 232 230 241 285 292 263 56 321 335 159 212 128 126 122 330 349 132 129 127 140 136 133 135 135 129 135 136 138 145 151 149 145 141 144 148 149 146 149 151 151 141 144 151 153 152 161 158 170 170 162 121 110 99 113 123 103 103 125 101 82 96 82 79 93 100 106 126 132 131 132 16 353 337 324 354 337 46 22 27 8 331 325 16 349 348 355 342 330 324 330 344 339 338 338
158 247 273 289 226 239 256 270 280 290 284 233 238 139 134 138 98 23 100 99 117 129 137 137 132 130 132 135 142 145 149 153 154 144 146 148 152 157 155 147 145 135 132 146 156 161 166 175 170 156 160 149 129 113 107 97 94 105 187 205 105 146 120 148 96 90 103 110 120 223 92 77 136 187 257 316 287 351 285 299 95 117 147 318 343 10 258 311 315 282 297 300 320 337 331 328 333
206 268 257 260 268 246 261 264 288 271 263 223 76 79 130 135 126 118 111 120 122 120 122 124 126 130 132 134 141 142 137 121 116 114 112 130 141 143 141 133 135 141 149 156 157 153 169 176 162 152 137 122 115 110 105 99 116 128 149 95 94 231 127 176 112 78 102 134 164 214 147 192 248 237 261 251 275 251 294 306 315 265 182 157 59 358 317 287 324 325 293 295 303 300 297 302 309
200 225 246 286 278 272 268 293 270 269 304 131 70 95 101 104 89 56 38 93 113 118 117 124 125 125 131 137 140 138 127 121 117 117 126 131 135 140 139 134 134 150 156 153 152 149 151 151 164 150 127 117 112 97 103 115 156 163 160 157 203 233 170 122 120 111 136 134 177 199 197 173 247 243 259 268 217 254 270 301 303 292 287 175 98 305 317 339 334 5 1 352 6 349 294 287 329
171 222 229 249 260 283 279 244 272 354 150 123 107 110 127 148 93 94 320 303 123 118 122 127 127 128 130 129 122 116 115 118 120 122 119 126 134 139 135 127 136 133 147 146 131 127 153 148 176 112 107 132 82 98 120 154 175 176 164 170 239 266 305 171 134 129 114 222 223 206 207 213 224 255 245 259 259 250 251 243 257 285 307 299 178 233 245 267 290 287 284 292 302 286 274 241 270
306 276 316 282 282 265 270 299 279 41 351 143 121 129 139 40 109 152 165 194 126 123 125 124 124 126 122 114 106 103 100 101 109 118 129 132 132 126 128 132 131 135 139 136 113 120 140 171 149 69 89 96 110 115 140 163 190 196 177 157 207 275 340 350 29 123 214 241 238 222 242 296 252 252 241 240 238 250 250 244 258 255 275 301 310 219 213 245 235 251 265 265 257 259 277 286 260
287 5 337 300 357 294 270 235 249 107 223 140 119 87 62 133 160 154 147 139 131 124 123 122 122 118 115 113 107 102 105 101 96 94 92 90 94 102 107 96 117 115 87 119 133 145 180 165 110 78 71 89 120 145 154 172 209 202 166 139 100 334 54 103 317 260 207 214 242 88 348 249 261 257 261 254 256 252 265 282 280 257 259 264 271 274 191 212 242 255 263 253 275 279 287 281 266
335 354 166 338 351 332 268 300 321 84 181 165 133 133 242 342 106 130 140 133 129 128 123 126 125 119 118 115 115 106 92 90 81 86 98 100 104 104 105 109 117 109 110 101 121 134 135 82 87 76 62 74 128 115 121 140 253 266 105 89 106 112 87 341 298 317 295 228 145 172 206 256 256 264 266 279 272 291 312 307 295 297 252 220 204 191 191 216 245 270 263 276 266 256 260 246 261
157 251 90 178 91 263 286 260 277 164 119 175 90 136 254 126 9 75 314 145 144 137 133 130 123 118 119 116 116 104 89 82 79 79 82 96 109 109 107 99 107 113 107 108 113 128 121 77 110 39 216 15 31 38 37 7 339 314 61 99 113 160 167 160 178 237 249 225 179 201 206 222 240 245 242 244 275 280 288 290 287 272 241 168 177 193 193 210 223 260 278 286 302 305 301 304 290
325 39 304 321 148 277 292 302 165 185 357 24 85 93 166 42 133 141 127 189 154 139 133 128 125 126 127 121 111 104 98 81 75 65 63 63 65 91 101 105 103 101 102 100 98 91 103 74 67 45 1 23 26 20 16 15 10 68 83 110 136 172 203 188 197 202 223 235 239 211 198 218 231 235 235 219 235 240 248 261 263 268 244 207 204 204 199 215 235 265 272 260 287 291 307 297 303
347 119 264 174 153 230 357 307 277 134 68 15 55 179 92 65 213 214 140 201 163 137 124 122 125 127 125 124 114 108 106 91 79 67 56 51 61 88 100 100 100 99 98 94 93 87 88 87 87 50 353 350 357 6 13 4 13 12 24 29 47 114 113 321 268 256 175 185 288 276 246 221 228 226 226 221 215 223 229 242 259 248 236 230 237 238 234 240 217 256 276 257 234 271 290 288 297
295 18 188 209 167 195 206 298 352 28 70 336 9 114 195 146 179 180 155 182 165 130 121 120 116 120 125 123 121 116 110 108 95 76 61 56 65 79 87 95 89 84 78 78 77 79 75 64 77 58 354 336 347 330 342 355 356 25 20 16 9 10 6 22 355 2 337 324 315 296 291 264 243 223 220 210 212 220 225 233 244 243 237 234 238 260 276 260 226 223 248 242 233 241 265 264 277
197 217 52 274 103 184 182 151 222 67 10 108 34 83 78 150 162 165 162 172 171 146 134 128 125 131 132 129 128 121 114 110 109 97 83 64 61 67 74 83 84 77 68 57 69 64 73 66 48 34 14 345 343 36 21 35 22 11 27 30 5 341 351 346 326 340 331 326 300 276 275 255 247 255 238 215 208 215 219 229 238 238 230 227 211 221 231 216 219 229 239 259 226 235 242 241 241
179 164 177 162 143 207 167 242 323 108 52 47 108 129 124 148 136 72 23 50 22 120 118 117 123 120 117 115 108 100 97 111 114 99 73 68 61 60 57 69 71 70 64 62 62 57 65 61 55 35 6 346 357 27 46 25 15 342 322 360 358 338 331 344 359 279 280 258 251 260 285 279 252 226 213 224 238 241 231 233 240 246 117 32 279 230 230 222 217 227 235 252 250 240 229 240 245
136 112 107 222 200 276 264 29 139 119 81 19 28 91 116 132 114 70 65 36 43 327 127 112 109 108 107 102 101 97 87 100 100 90 83 76 73 66 67 73 79 70 56 57 57 49 52 66 64 45 17 25 31 22 14 35 12 344 61 69 319 287 331 336 354 349 329 261 261 230 230 239 263 306 325 103 211 261 247 245 251 273 101 196 245 264 301 296 272 250 244 219 237 254 240 209 237
149 111 80 322 94 238 282 82 240 325 106 26 64 91 86 107 108 126 119 134 124 204 95 107 108 104 103 106 108 100 103 108 96 89 89 80 75 70 63 62 70 72 55 68 63 58 58 55 57 43 25 30 26 19 15 32 355 282 271 269 203 291 1 7 350 349 344 339 318 297 306 300 245 205 224 208 246 243 264 261 257 275 275 219 229 263 283 290 295 282 260 263 215 240 262 184 203
115 166 140 35 294 226 313 45 57 61 95 133 129 99 80 89 106 89 119 135 111 333 30 31 101 108 103 105 107 113 113 106 91 88 87 90 80 67 68 58 63 68 63 67 68 65 56 55 53 44 38 36 25 11 19 15 330 354 92 233 152 218 216 149 290 281 309 323 323 303 284 300 311 319 315 295 276 264 257 267 264 220 241 261 264 260 274 278 275 278 280 274 286 234 265 240 189
133 100 123 208 250 90 355 345 356 351 124 147 144 101 90 81 78 72 91 122 114 99 72 69 73 96 99 108 109 118 117 102 93 100 92 81 84 76 63 59 55 57 52 52 50 56 52 53 47 43 46 42 32 18 18 12 5 3 32 66 121 123 92 354 94 173 337 346 1 334 323 327 323 307 300 290 289 299 294 278 275 246 234 212 229 252 252 263 261 263 253 253 247 280 260 255 200
194 160 168 160 174 139 145 142 73 76 62 123 110 80 25 84 121 117 107 115 110 100 90 70 64 68 81 86 82 87 112 104 99 99 84 93 90 80 77 72 59 55 50 44 36 47 50 49 41 44 45 42 35 28 20 15 19 18 8 39 48 31 41 35 36 28 21 16 19 18 5 353 350 347 332 326 325 316 310 299 289 274 259 219 203 233 258 263 262 251 250 250 239 239 265 266 228
261 235 188 174 145 99 103 137 99 43 105 195 133 68 286 344 132 181 137 155 120 124 99 89 90 89 91 85 87 88 77 90 98 91 94 100 105 104 87 74 66 58 47 39 47 55 53 45 37 36 43 35 28 27 26 25 25 31 22 27 29 27 25 19 26 15 5 13 10 344 12 24 22 30 13 340 322 313 305 293 284 278 274 281 255 248 265 279 271 264 249 249 256 245 261 280 280
141 262 166 166 141 130 134 128 90 118 146 210 265 155 221 344 278 253 189 158 119 116 99 104 93 94 90 92 103 103 103 96 86 84 107 107 83 80 80 83 83 72 56 37 48 58 57 56 44 43 45 41 28 29 26 29 29 29 38 35 35 40 28 31 15 23 23 358 12 18 16 20 23 21 13 11 357 342 322 312 299 285 285 276 268 259 263 262 265 259 260 244 246 256 254 260 257
212 243 166 155 147 160 172 151 134 181 282 248 171 247 147 197 232 212 188 156 127 123 122 124 117 117 112 104 105 103 99 97 98 94 95 84 81 84 91 86 75 76 72 59 51 54 49 47 52 51 50 52 39 35 35 27 37 22 29 34 22 19 21 4 8 6 5 5 24 26 23 29 17 14 16 12 8 6 358 345 332 305 292 284 273 260 262 265 264 264 248 247 252 245 248 252 259
209 192 140 160 169 193 177 157 154 156 139 198 243 183 107 201 161 134 164 167 165 173 151 144 135 127 125 111 111 103 102 96 94 95 91 78 80 79 81 83 77 69 57 54 46 52 58 48 62 58 52 50 45 48 50 36 36 35 38 38 32 15 13 15 4 5 6 3 13 8 16 21 20 14 13 11 6 4 4 353 346 338 308 292 271 264 264 272 275 280 283 272 258 255 245 251 248
251 154 125 145 167 179 156 170 134 137 128 210 204 189 137 253 168 151 180 229 189 188 160 147 146 140 136 122 121 114 107 94 90 93 94 96 96 96 86 78 71 58 71 85 59 54 50 49 51 52 38 31 22 27 49 56 42 35 45 42 44 31 22 12 12 11 9 5 6 4 7 7 2 4 11 14 8 2 358 355 353 351 345 328 318 302 301 295 289 285 280 277 268 261 250 245 250
182 164 267 294 72 59 48 94 123 76 212 221 185 193 140 186 211 184 174 209 183 146 146 148 150 145 134 132 129 122 101 96 102 104 94 90 76 76 71 74 60 21 34 45 44 46 47 40 44 46 35 32 24 22 20 39 52 47 49 49 49 44 28 25 24 20 11 12 9 2 2 353 353 357 2 7 10 1 360 2 360 360 2 2 356 352 340 323 311 303 298 289 282 273 270 260 254
159 116 158 243 293 20 36 358 88 152 246 239 176 182 146 196 226 218 209 26 159 167 166 156 156 149 139 137 122 116 111 109 111 112 107 103 99 80 72 73 49 334 74 59 50 47 46 40 46 48 33 29 28 25 25 18 26 45 49 52 56 47 39 36 35 28 21 18 9 3 351 350 355 357 2 1 6 6 6 8 9 8 4 355 354 347 343 340 332 323 311 298 284 271 264 263 262
158 136 110 148 259 100 247 90 234 216 201 266 165 141 82 234 224 303 174 83 146 159 161 157 150 139 130 124 121 120 114 116 120 119 110 107 109 111 108 105 95 27 36 65 73 67 57 49 54 66 43 32 31 23 23 23 36 35 36 52 55 51 49 43 36 35 25 23 9 2 357 360 355 359 359 0 11 8 9 9 9 6 359 355 347 346 338 333 325 315 310 306 298 290 280 274 275
153 164 172 150 175 182 204 255 235 313 274 314 188 167 195 31 277 243 215 153 135 107 106 129 134 126 122 116 108 106 108 120 122 116 117 118 120 121 124 103 84 21 27 63 82 70 62 52 56 77 55 39 34 28 16 27 33 35 39 45 47 45 43 35 32 30 24 26 17 8 0 355 354 356 356 12 16 18 18 9 4 2 2 358 355 353 349 342 335 323 311 304 301 294 286 277 271
187 129 156 179 143 164 202 182 179 206 205 291 293 146 241 148 254 343 78 111 99 108 120 121 119 120 121 122 119 110 110 106 111 117 122 124 125 133 144 134 105 73 82 80 73 65 60 53 64 79 65 34 39 26 23 28 26 27 32 39 37 38 37 34 28 27 28 25 21 13 3 2 6 5 4 14 12 37 21 6 3 2 358 360 360 357 352 346 340 328 320 308 296 285 282 282 281
194 156 95 132 218 131 323 204 157 166 132 103 343 177 354 54 68 104 110 116 118 117 121 126 125 127 128 123 122 120 119 123 127 127 122 114 121 126 97 68 58 58 61 57 62 63 67 73 78 73 68 44 32 29 23 26 24 30 32 38 36 41 45 42 37 29 29 26 26 16 9 8 9 8 4 8 1 48 21 6 4 3 358 359 1 356 350 343 335 325 328 334 327 324 306 294 284
224 129 195 210 122 113 66 72 150 98 68 34 97 124 131 103 70 107 130 127 132 136 135 133 129 128 128 127 129 125 126 127 131 131 122 110 86 65 68 77 76 70 60 54 56 65 82 85 79 66 52 42 32 27 31 32 41 39 33 34 32 42 50 46 39 35 33 32 31 25 17 12 7 12 9 6 4 49 22 16 7 358 356 352 353 352 348 342 338 334 337 332 331 330 325 318 305
127 182 213 104 106 114 165 220 21 52 169 225 89 185 170 149 216 158 132 135 147 145 148 139 129 132 134 133 126 129 135 133 124 107 90 95 102 98 90 81 78 73 71 61 63 70 75 74 74 70 56 51 40 44 46 41 38 39 35 34 35 39 45 46 39 37 33 33 31 29 25 27 20 16 16 12 11 29 28 15 8 5 0 357 353 346 341 336 340 339 337 331 325 326 323 318 314
176 189 172 156 196 230 299 106 182 151 259 245 275 194 226 211 174 153 159 157 159 156 149 143 143 141 138 134 130 130 126 116 111 107 107 106 103 100 96 89 78 76 74 79 75 72 71 69 68 73 71 66 61 58 62 52 50 52 47 44 41 36 34 38 41 39 38 36 32 28 30 28 27 28 24 19 21 15 12 13 11 7 1 358 353 351 347 343 339 329 337 330 325 331 326 317 316
49 104 160 160 125 176 134 209 171 110 180 101 239 169 242 201 187 180 167 165 158 155 156 154 146 140 139 138 138 135 128 122 117 114 107 105 100 95 89 84 79 73 81 80 78 73 71 70 73 72 70 64 58 56 58 59 52 55 51 45 38 37 31 31 33 41 42 38 31 29 25 25 23 20 24 27 23 16 14 14 12 8 4 1 358 356 351 346 340 338 334 329 329 331 326 322 320
162 144 178 206 67 215 107 47 111 155 159 182 155 215 245 218 167 180 168 165 164 159 154 147 141 144 144 145 142 136 134 131 126 120 116 109 104 89 78 77 78 75 79 81 77 80 76 73 70 67 70 64 62 56 60 58 56 50 51 45 36 30 26 24 25 37 47 42 37 33 30 25 23 24 18 20 20 18 18 15 11 9 5 1 358 358 356 349 346 339 337 333 331 333 328 322 321
166 156 187 168 119 127 159 236 38 95 116 172 141 237 253 281 188 174 168 164 157 154 143 137 138 141 144 141 136 138 136 136 127 120 116 107 101 95 84 79 75 81 82 86 85 81 77 71 75 75 67 62 68 56 57 56 54 50 50 43 35 25 26 27 31 28 45 44 40 35 28 28 30 21 20 19 17 18 16 17 14 7 5 2 0 357 354 354 349 342 337 336 332 329 326 321 321